862  
ASUS43 KDTX 111510  
RWRMI  
MICHIGAN HOURLY REGIONAL WEATHER ROUNDUP  
NATIONAL WEATHER SERVICE DETROIT/PONTIAC MI  
ISSUED BY NATIONAL WEATHER SERVICE GRAND RAPIDS MI  
1000 AM EST MON DEC 11 2017  
 
NOTE: "FAIR" INDICATES FEW OR NO CLOUDS BELOW 12,000 FEET WITH NO  
SIGNIFICANT WEATHER AND/OR TO VISIBILITY
.  
 
MIZ047>049-052>055-059>063-066>070-074>076-081>083-111600-  
SOUTHEAST LOWER MICHIGAN  
 
CITY SKY/WX TMP DP RH WIND PRES REMARKS
 
ADRIAN LGT SNOW 25 22 88 S7 29.98F FOG WCI 17  
ALMA LGT SNOW 20 18 93 E5 29.98S VSB 3/4 WCI 14  
ANN ARBOR LGT SNOW 24 21 88 SE9 29.97F VSB 3/4 WCI 14  
BAD AXE PTSUNNY 17 10 72 S3 30.00F  
DETROIT CITY CLOUDY 23 16 74 E5 30.02F WCI 17  
DETROIT LGT SNOW 26 19 74 SE6 30.00F WCI 19  
FLINT LGT SNOW 20 15 81 SE8 29.98F WCI 10  
GROSSE ILE CLOUDY 28 22 79 SE3 30.01F  
HILLSDALE FLURRIES 27 23 86 MISG 29.94F  
HOWELL LGT SNOW 22 21 94 SE8 29.95F VSB 3/4 WCI 13  
 
CITY SKY/WX TMP DP RH WIND PRES REMARKS
 
JACKSON LGT SNOW 26 23 88 S6 29.95F VSB 3/4 WCI 19  
LANSING LGT SNOW 21 19 92 SE8 29.96F VSB 3/4 WCI 11  
MASON LGT SNOW 24 19 83 SE8 29.95F VSB 1 WCI 15  
MONROE LGT SNOW 27 22 84 S6 30.00F WCI 20  
MT. CLEMENS CLOUDY 20 13 73 CALM 30.01S  
PONTIAC CLOUDY 21 16 81 E8 29.97F WCI 11  
PORT HOPE N/A 19 10 68 SW8 29.99S WCI 9  
PORT HURON CLOUDY 18 9 68 CALM 30.04R  
TRI CITIES LGT SNOW 20 16 84 S8 30.00F FOG WCI 10  
YPSILANTI LGT SNOW 26 21 81 SE10 30.00F VSB 1 WCI 16  

 
MIZ043>046-050>051-056>058-064>065-071>073-077>080-111600-  
SOUTHWEST LOWER MICHIGAN  
 
CITY SKY/WX TMP DP RH WIND PRES REMARKS
 
BATTLE CREEK LGT SNOW 27 24 89 S12 29.95F FOG WCI 17  
BENTON HARBOR LGT SNOW 27 22 81 S8 29.94F WCI 19  
BIG RAPIDS LGT SNOW 19 16 86 SE8 29.92F WCI 9  
COLDWATER LGT SNOW 28 25 89 SW6 29.96S WCI 21  
HOLLAND LGT SNOW 28 24 85 S13 29.93F FOG WCI 17  
GRAND RAPIDS LGT SNOW 24 24 100 SE7 29.93F VSB 1 WCI 16  
KALAMAZOO LGT SNOW 27 24 89 S12 29.95F VSB 1 WCI 17  
MARSHALL LGT SNOW 26 24 92 S7 29.95S WCI 19  
MOUNT PLEASANT LGT SNOW 21 16 83 SE8 29.96S VSB 1 WCI 11  
MUSKEGON LGT SNOW 26 23 88 SE9 29.92F VSB 1 WCI 17  
STURGIS LGT SNOW 26 24 91 S6 29.96F WCI 20  

 
MIZ016>042-111600-  
NORTHERN LOWER MICHIGAN  
 
CITY SKY/WX TMP DP RH WIND PRES REMARKS
 
ALPENA CLOUDY 18 10 71 SW8 29.99S WCI 8  
BEAVER ISLAND CLOUDY 23 16 73 CALM 29.89F  
BELLAIRE CLOUDY 21 15 78 S5 29.93F WCI 15  
CADILLAC LGT SNOW 17 14 88 SE6 29.89S WCI 8  
CHARLEVOIX CLOUDY 21 15 78 SE6 29.93F WCI 13  
GAYLORD CLOUDY 15 10 80 S8 29.89F WCI 4  
HOUGHTON LAKE LGT SNOW 18 12 77 S8 29.93S WCI 8  
MANISTEE LGT SNOW 21 18 88 SE10 29.89F FOG WCI 10  
OSCODA CLOUDY 19 8 61 SW3 30.00S  
PELLSTON CLOUDY 19 12 74 S8 29.93F WCI 9  
TRAVERSE CITY LGT SNOW 21 17 84 VRB6 29.92F FOG WCI 13  
LUDINGTON LGT SNOW 22 19 87 SE8 29.89F WCI 13  

 
MIZ007>008-015-111600-  
EASTERN UPPER MICHIGAN  
 
CITY SKY/WX TMP DP RH WIND PRES REMARKS
 
KINROSS FLURRIES 10 8 92 E9 29.92F WCI -3  
MACKINAC ISLAN FLURRIES 20 12 69 SE7G20 29.92F WCI 11  
NEWBERRY FLURRIES 14 13 95 SE5 29.87F WCI 6  
S. S. MARIE MIX PCPN 9 5 84 E8 29.94F WCI -3  

 
MIZ004>006-011>014-085-111600-  
CENTRAL UPPER MICHIGAN  
 
CITY SKY/WX TMP DP RH WIND PRES REMARKS
 
MANISTIQUE CLOUDY 18 9 70 CALM 29.88S  
ESCANABA LGT SNOW 19 17 92 NW3 29.87F FOG  
MENOMINEE LGT SNOW 23 21 93 CALM 29.86F FOG  
SAWYER-GWINN LGT SNOW 12 10 92 S10 29.81F WCI -1  

 
MIZ001>003-009>011-084-111600-  
WESTERN UPPER MICHIGAN  
 
CITY SKY/WX TMP DP RH WIND PRES REMARKS
 
IRON MOUNTAIN LGT SNOW 16 12 84 SE7 29.78F FOG WCI 6  
HOUGHTON LGT SNOW 16 11 80 SW7 29.74F WCI 6  
COPPER HARBOR N/A 19 13 77 SW9 29.77F WCI 8  
IRONWOOD LGT SNOW 19 16 86 S6 29.73R FOG WCI 11  

 
 
ABBREVIATIONS USED IN REMARKS  
TC - TEMPERATURE IN CELSIUS  
WCI - WIND CHILL INDEX  
HX - HEAT INDEX  
VSB - VISIBILITY  
 
 
 
CLICK HERE TO GO TO PREVIOUS BULLETINS.

The Nexlab MI Page Main Text Page